TimePST,TemperatureF,Dew PointF,Humidity,Sea Level PressureIn,VisibilityMPH,Wind Direction,Wind SpeedMPH,Gust SpeedMPH,PrecipitationIn,Events,Conditions,WindDirDegrees,DateUTC
12:03 AM,32.0,32.0,100,30.15,10.0,NE,1.2,-,N/A,,Overcast,40,2013-12-19 08:03:00
12:28 AM,35.6,33.8,93,30.17,10.0,North,5.8,-,N/A,,Mostly Cloudy,360,2013-12-19 08:28:00
12:48 AM,35.6,35.6,100,30.20,10.0,NW,2.3,-,N/A,,Mostly Cloudy,310,2013-12-19 08:48:00
12:58 AM,35.4,34.7,97,30.20,10.0,NW,2.3,-,N/A,,Mostly Cloudy,310,2013-12-19 08:58:00
1:13 AM,32.0,32.0,100,30.20,10.0,South,2.3,-,N/A,,Mostly Cloudy,190,2013-12-19 09:13:00
1:58 AM,32.2,32.0,99,30.23,10.0,Variable,2.3,-,N/A,,Partly Cloudy,0,2013-12-19 09:58:00
2:58 AM,34.2,28.4,79,30.25,10.0,North,8.1,-,N/A,,Clear,10,2013-12-19 10:58:00
3:58 AM,34.7,26.2,71,30.29,10.0,North,6.9,-,N/A,,Clear,350,2013-12-19 11:58:00
4:58 AM,31.6,26.1,80,30.29,10.0,North,5.8,-,N/A,,Clear,360,2013-12-19 12:58:00
5:58 AM,27.3,23.7,86,30.30,10.0,Calm,Calm,-,N/A,,Clear,0,2013-12-19 13:58:00
6:58 AM,23.7,23.2,98,30.31,10.0,SSW,3.5,-,N/A,,Clear,200,2013-12-19 14:58:00
7:58 AM,24.1,23.9,99,30.32,10.0,South,4.6,-,N/A,,Clear,170,2013-12-19 15:58:00
8:58 AM,26.8,26.4,99,30.33,10.0,East,2.3,-,N/A,,Clear,90,2013-12-19 16:58:00
9:58 AM,34.5,28.4,78,30.36,10.0,Calm,Calm,-,N/A,,Clear,0,2013-12-19 17:58:00
10:58 AM,35.8,29.1,77,30.38,10.0,SE,2.3,-,N/A,,Clear,130,2013-12-19 18:58:00
11:58 AM,36.5,28.9,74,30.34,10.0,SE,3.5,-,N/A,,Clear,140,2013-12-19 19:58:00
12:58 PM,37.8,26.8,65,30.30,10.0,SSW,2.3,-,N/A,,Clear,210,2013-12-19 20:58:00
1:58 PM,40.6,22.6,49,30.32,10.0,NE,3.5,-,N/A,,Clear,50,2013-12-19 21:58:00
2:58 PM,38.8,21.6,50,30.31,10.0,East,4.6,-,N/A,,Clear,90,2013-12-19 22:58:00
3:58 PM,37.4,20.3,50,30.31,10.0,ENE,3.5,-,N/A,,Mostly Cloudy,60,2013-12-19 23:58:00
4:58 PM,35.4,21.9,58,30.31,10.0,Calm,Calm,-,N/A,,Overcast,0,2013-12-20 00:58:00
5:58 PM,33.1,25.2,73,30.30,10.0,SSE,3.5,-,N/A,,Overcast,160,2013-12-20 01:58:00
6:58 PM,30.9,26.6,84,30.28,10.0,South,2.3,-,N/A,,Mostly Cloudy,180,2013-12-20 02:58:00
7:58 PM,31.5,25.9,80,30.28,10.0,East,1.2,-,N/A,,Clear,100,2013-12-20 03:58:00
8:58 PM,27.5,26.8,97,30.26,10.0,SSE,2.3,-,N/A,,Scattered Clouds,150,2013-12-20 04:58:00
9:58 PM,28.2,26.6,94,30.25,10.0,South,4.6,-,N/A,,Mostly Cloudy,170,2013-12-20 05:58:00
10:58 PM,28.9,28.4,98,30.22,10.0,East,3.5,-,N/A,,Overcast,100,2013-12-20 06:58:00
11:58 PM,30.9,26.1,82,30.23,10.0,SW,4.6,-,N/A,,Overcast,220,2013-12-20 07:58:00